TimePST,TemperatureF,Dew PointF,Humidity,Sea Level PressureIn,VisibilityMPH,Wind Direction,Wind SpeedMPH,Gust SpeedMPH,PrecipitationIn,Events,Conditions,WindDirDegrees,DateUTC
12:22 AM,60.8,57.2,88,29.84,5.0,South,15.0,23.0,0.04,Rain,Rain,170,2012-11-30 08:22:00
12:44 AM,60.8,57.2,88,29.83,5.0,SSE,15.0,-,0.09,Rain,Rain,160,2012-11-30 08:44:00
12:54 AM,61.0,57.9,90,29.81,7.0,SSE,13.8,24.2,0.10,Rain,Light Rain,160,2012-11-30 08:54:00
1:27 AM,60.8,57.2,88,29.81,4.0,South,16.1,25.3,0.09,Rain,Rain,170,2012-11-30 09:27:00
1:41 AM,60.8,57.2,88,29.80,6.0,South,20.7,27.6,0.10,Rain,Rain,170,2012-11-30 09:41:00
1:54 AM,61.0,57.9,90,29.77,4.0,SSE,18.4,24.2,0.14,Rain,Heavy Rain,160,2012-11-30 09:54:00
2:54 AM,61.0,57.9,90,29.73,3.0,SSE,21.9,29.9,0.24,Rain,Heavy Rain,160,2012-11-30 10:54:00
3:26 AM,62.6,57.2,82,29.75,10.0,South,27.6,35.7,0.02,,Overcast,190,2012-11-30 11:26:00
3:35 AM,60.8,57.2,88,29.76,2.5,South,24.2,38.0,0.05,,Overcast,180,2012-11-30 11:35:00
3:44 AM,60.8,57.2,88,29.77,2.0,South,21.9,32.2,0.08,Rain,Light Rain,190,2012-11-30 11:44:00
3:54 AM,61.0,57.9,90,29.74,3.0,South,20.7,29.9,0.09,,Overcast,190,2012-11-30 11:54:00
4:02 AM,60.8,57.2,88,29.76,3.0,South,20.7,31.1,N/A,,Overcast,190,2012-11-30 12:02:00
4:47 AM,60.8,59.0,94,29.80,3.0,SSW,21.9,28.8,0.08,Rain,Rain,210,2012-11-30 12:47:00
4:54 AM,61.0,59.0,93,29.77,4.0,SSW,21.9,29.9,0.11,Rain,Rain,200,2012-11-30 12:54:00
5:02 AM,60.8,59.0,94,29.79,4.0,SSW,18.4,28.8,0.01,Rain,Light Rain,200,2012-11-30 13:02:00
5:11 AM,60.8,57.2,88,29.79,8.0,South,20.7,28.8,0.01,Rain,Light Rain,190,2012-11-30 13:11:00
5:45 AM,60.8,57.2,88,29.79,10.0,SSW,20.7,29.9,0.02,,Overcast,200,2012-11-30 13:45:00
5:54 AM,61.0,57.9,90,29.78,10.0,SSW,20.7,29.9,0.02,,Overcast,200,2012-11-30 13:54:00
6:25 AM,60.8,57.2,88,29.82,10.0,SSW,18.4,26.5,N/A,,Overcast,210,2012-11-30 14:25:00
6:51 AM,60.8,55.4,82,29.82,10.0,South,10.4,-,0.00,Rain,Light Rain,190,2012-11-30 14:51:00
6:54 AM,59.0,55.9,90,29.79,10.0,South,9.2,-,0.00,Rain,Light Rain,180,2012-11-30 14:54:00
7:04 AM,60.8,57.2,88,29.83,10.0,SSW,9.2,-,0.00,Rain,Light Rain,210,2012-11-30 15:04:00
7:11 AM,60.8,57.2,88,29.83,10.0,SW,9.2,-,0.00,Rain,Light Rain,220,2012-11-30 15:11:00
7:54 AM,60.1,57.9,93,29.80,7.0,South,12.7,-,0.07,,Overcast,190,2012-11-30 15:54:00
8:20 AM,60.8,57.2,88,29.84,8.0,SSW,11.5,-,0.00,Rain,Light Rain,200,2012-11-30 16:20:00
8:54 AM,60.1,57.9,93,29.82,10.0,South,8.1,-,0.00,Rain,Light Rain,190,2012-11-30 16:54:00
9:54 AM,59.0,55.9,90,29.84,10.0,South,13.8,-,0.00,Rain,Light Rain,190,2012-11-30 17:54:00
10:01 AM,59.0,55.4,88,29.87,9.0,South,11.5,-,0.00,Rain,Light Rain,190,2012-11-30 18:01:00
10:54 AM,59.0,55.9,90,29.84,6.0,South,11.5,-,0.01,Rain,Light Rain,180,2012-11-30 18:54:00
11:21 AM,59.0,57.2,94,29.88,5.0,South,9.2,-,0.01,Rain,Light Rain,190,2012-11-30 19:21:00
11:28 AM,59.0,57.2,94,29.88,6.0,South,10.4,-,0.01,Rain,Light Rain,190,2012-11-30 19:28:00
11:49 AM,59.0,55.4,88,29.88,7.0,SSW,12.7,-,0.02,Rain,Light Rain,200,2012-11-30 19:49:00
11:54 AM,59.0,55.9,90,29.85,9.0,SSW,12.7,-,0.02,Rain,Light Rain,200,2012-11-30 19:54:00
12:54 PM,61.0,57.9,90,29.84,10.0,SSW,15.0,-,0.00,,Overcast,200,2012-11-30 20:54:00
1:54 PM,62.1,55.9,80,29.85,10.0,SSW,16.1,-,N/A,,Mostly Cloudy,200,2012-11-30 21:54:00
2:28 PM,60.8,55.4,82,29.87,10.0,SSW,9.2,-,0.00,Rain,Light Rain,200,2012-11-30 22:28:00
2:54 PM,61.0,55.9,83,29.86,10.0,SSW,11.5,-,0.00,,Overcast,210,2012-11-30 22:54:00
4:54 PM,59.0,55.9,90,29.91,10.0,South,10.4,-,N/A,,Overcast,190,2012-12-01 00:54:00
5:34 PM,59.0,55.4,88,29.94,10.0,South,10.4,-,N/A,,Overcast,180,2012-12-01 01:34:00
5:54 PM,60.1,55.9,86,29.92,10.0,South,8.1,-,N/A,,Overcast,180,2012-12-01 01:54:00
6:38 PM,59.0,57.2,94,29.96,5.0,South,8.1,-,0.00,Rain,Light Rain,190,2012-12-01 02:38:00
7:01 PM,59.0,57.2,94,29.96,3.0,South,13.8,-,0.01,Rain,Light Rain,190,2012-12-01 03:01:00
7:13 PM,59.0,57.2,94,29.96,9.0,South,10.4,-,0.03,Rain,Light Rain,180,2012-12-01 03:13:00
8:23 PM,60.8,55.4,82,29.97,10.0,South,13.8,-,N/A,,Overcast,180,2012-12-01 04:23:00
8:54 PM,59.0,55.9,90,29.96,10.0,South,11.5,-,N/A,,Overcast,180,2012-12-01 04:54:00
9:54 PM,59.0,55.9,90,29.98,9.0,South,10.4,-,N/A,,Overcast,180,2012-12-01 05:54:00
10:15 PM,59.0,55.4,88,30.00,10.0,SSE,9.2,-,N/A,,Overcast,160,2012-12-01 06:15:00
10:54 PM,57.9,54.0,87,29.97,10.0,SE,6.9,-,N/A,,Mostly Cloudy,140,2012-12-01 06:54:00
11:06 PM,59.0,53.6,82,30.00,10.0,SSE,9.2,-,N/A,,Mostly Cloudy,160,2012-12-01 07:06:00
11:49 PM,59.0,55.4,88,30.00,10.0,South,8.1,-,N/A,,Overcast,180,2012-12-01 07:49:00